Time,TemperatureF,DewpointF,PressureIn,WindDirection,WindDirectionDegrees,WindSpeedMPH,WindSpeedGustMPH,Humidity,HourlyPrecipIn,Conditions,Clouds,dailyrainin,SoftwareType,DateUTC
2013-06-16 00:00:00,55.7,55.7,29.75,North,0,0.0,0.0,100,0.00,,SCT080,0.00,VWS V12.07,2013-06-16 05:00:00,
2013-06-16 00:10:00,56.0,56.0,29.75,North,0,0.0,0.0,100,0.00,,SCT080,0.00,VWS V12.07,2013-06-16 05:10:00,
2013-06-16 00:20:00,57.5,57.5,29.75,North,0,0.0,0.0,100,0.00,,SCT080,0.00,VWS V12.07,2013-06-16 05:20:00,
2013-06-16 00:30:00,58.1,58.1,29.75,North,0,0.0,1.0,100,0.00,,SCT080,0.00,VWS V12.07,2013-06-16 05:30:00,
2013-06-16 00:40:00,58.3,58.3,29.75,North,0,1.0,2.0,100,0.00,,SCT080,0.00,VWS V12.07,2013-06-16 05:40:00,
2013-06-16 00:50:00,58.3,58.3,29.75,North,0,0.0,2.0,100,0.00,,SCT080,0.00,VWS V12.07,2013-06-16 05:50:00,
2013-06-16 01:00:00,58.4,58.4,29.75,North,0,1.0,2.0,100,0.00,,SCT080,0.00,VWS V12.07,2013-06-16 06:00:00,
2013-06-16 01:10:00,58.3,58.3,29.75,North,0,0.0,2.0,100,0.00,,SCT080,0.00,VWS V12.07,2013-06-16 06:10:00,
2013-06-16 01:20:00,58.1,58.1,29.75,North,0,0.0,2.0,100,0.00,,SCT080,0.00,VWS V12.07,2013-06-16 06:20:00,
2013-06-16 01:30:00,58.1,58.1,29.74,North,0,0.0,1.0,100,0.00,,SCT080,0.00,VWS V12.07,2013-06-16 06:30:00,
2013-06-16 01:40:00,58.3,58.3,29.74,North,0,0.0,0.0,100,0.00,,SCT080,0.00,VWS V12.07,2013-06-16 06:40:00,
2013-06-16 01:50:00,58.3,58.3,29.74,North,0,0.0,0.0,100,0.00,,SCT080,0.00,VWS V12.07,2013-06-16 06:50:00,
2013-06-16 02:00:00,58.4,58.4,29.74,North,0,0.0,0.0,100,0.00,,SCT080,0.00,VWS V12.07,2013-06-16 07:00:00,
2013-06-16 02:10:00,58.6,58.6,29.74,North,0,0.0,0.0,100,0.00,,SCT080,0.00,VWS V12.07,2013-06-16 07:10:00,
2013-06-16 02:20:00,58.6,58.6,29.73,North,0,0.0,1.0,100,0.00,,SCT080,0.00,VWS V12.07,2013-06-16 07:20:00,
2013-06-16 02:30:00,58.7,58.7,29.73,North,0,0.0,1.0,100,0.00,,SCT080,0.00,VWS V12.07,2013-06-16 07:30:00,
2013-06-16 02:40:00,58.9,58.9,29.73,North,0,0.0,0.0,100,0.00,,SCT080,0.00,VWS V12.07,2013-06-16 07:40:00,
2013-06-16 02:50:00,59.0,59.0,29.73,North,0,0.0,2.0,100,0.00,,SCT080,0.00,VWS V12.07,2013-06-16 07:50:00,
2013-06-16 03:00:00,59.0,59.0,29.72,North,0,0.0,1.0,100,0.00,,SCT080,0.00,VWS V12.07,2013-06-16 08:00:00,
2013-06-16 03:10:00,58.9,58.9,29.72,North,0,0.0,1.0,100,0.00,,SCT080,0.00,VWS V12.07,2013-06-16 08:10:00,
2013-06-16 03:20:00,58.6,58.6,29.72,North,0,0.0,0.0,100,0.00,,SCT080,0.00,VWS V12.07,2013-06-16 08:20:00,
2013-06-16 03:30:00,58.3,58.3,29.72,North,0,0.0,0.0,100,0.00,,SCT080,0.00,VWS V12.07,2013-06-16 08:30:00,
2013-06-16 03:40:00,58.0,58.0,29.72,North,0,0.0,0.0,100,0.00,,SCT080,0.00,VWS V12.07,2013-06-16 08:40:00,
2013-06-16 03:50:00,57.8,57.8,29.72,North,0,0.0,1.0,100,0.00,,SCT080,0.00,VWS V12.07,2013-06-16 08:50:00,
2013-06-16 04:00:00,57.5,57.5,29.72,North,0,0.0,0.0,100,0.00,,SCT080,0.00,VWS V12.07,2013-06-16 09:00:00,
2013-06-16 04:10:00,57.0,57.0,29.72,North,0,0.0,0.0,100,0.00,,SCT080,0.00,VWS V12.07,2013-06-16 09:10:00,
2013-06-16 04:20:00,56.6,56.6,29.72,North,0,0.0,0.0,100,0.00,,SCT080,0.00,VWS V12.07,2013-06-16 09:20:00,
2013-06-16 04:30:00,56.3,56.3,29.73,North,0,0.0,0.0,100,0.00,,SCT080,0.00,VWS V12.07,2013-06-16 09:30:00,
2013-06-16 04:40:00,56.0,56.0,29.73,North,0,0.0,0.0,100,0.00,,SCT080,0.00,VWS V12.07,2013-06-16 09:40:00,
2013-06-16 04:50:00,55.9,55.9,29.72,North,0,0.0,0.0,100,0.00,,SCT080,0.00,VWS V12.07,2013-06-16 09:50:00,
2013-06-16 05:00:00,55.7,55.7,29.72,North,0,0.0,0.0,100,0.00,,SCT080,0.00,VWS V12.07,2013-06-16 10:00:00,
2013-06-16 05:10:00,55.7,55.7,29.72,North,0,0.0,0.0,100,0.00,,SCT080,0.00,VWS V12.07,2013-06-16 10:10:00,
2013-06-16 05:20:00,55.7,55.7,29.73,North,0,0.0,0.0,100,0.00,,SCT080,0.00,VWS V12.07,2013-06-16 10:20:00,
2013-06-16 05:30:00,55.6,55.6,29.73,North,0,0.0,0.0,100,0.00,,SCT080,0.00,VWS V12.07,2013-06-16 10:30:00,
2013-06-16 05:40:00,55.4,55.4,29.73,North,0,0.0,0.0,100,0.00,,SCT080,0.00,VWS V12.07,2013-06-16 10:40:00,
2013-06-16 05:50:00,55.4,55.4,29.73,North,0,0.0,0.0,100,0.00,,SCT080,0.00,VWS V12.07,2013-06-16 10:50:00,
2013-06-16 06:00:00,55.4,55.4,29.73,North,0,0.0,0.0,100,0.00,,SCT080,0.00,VWS V12.07,2013-06-16 11:00:00,
2013-06-16 06:10:00,55.4,55.4,29.73,North,0,0.0,0.0,100,0.00,,SCT080,0.00,VWS V12.07,2013-06-16 11:10:00,
2013-06-16 06:20:00,55.3,55.3,29.74,North,0,0.0,0.0,100,0.00,,SCT080,0.00,VWS V12.07,2013-06-16 11:20:00,
2013-06-16 06:30:00,55.4,55.4,29.74,North,0,0.0,0.0,100,0.00,,SCT080,0.00,VWS V12.07,2013-06-16 11:30:00,
2013-06-16 06:40:00,55.6,55.6,29.74,North,0,0.0,0.0,100,0.00,,SCT080,0.00,VWS V12.07,2013-06-16 11:40:00,
2013-06-16 06:50:00,55.7,55.7,29.75,North,0,0.0,0.0,100,0.00,,SCT080,0.00,VWS V12.07,2013-06-16 11:50:00,
2013-06-16 07:00:00,56.0,56.0,29.75,North,0,0.0,0.0,100,0.00,,SCT080,0.00,VWS V12.07,2013-06-16 12:00:00,
2013-06-16 07:10:00,56.2,56.2,29.75,North,0,0.0,1.0,100,0.00,,SCT080,0.00,VWS V12.07,2013-06-16 12:10:00,
2013-06-16 07:20:00,56.3,56.3,29.75,North,0,0.0,0.0,100,0.00,,SCT080,0.00,VWS V12.07,2013-06-16 12:20:00,
2013-06-16 07:30:00,56.6,56.6,29.74,North,0,0.0,0.0,100,0.00,,SCT080,0.00,VWS V12.07,2013-06-16 12:30:00,
2013-06-16 07:40:00,56.9,56.9,29.74,North,0,0.0,0.0,100,0.00,,SCT080,0.00,VWS V12.07,2013-06-16 12:40:00,
2013-06-16 07:50:00,57.3,57.3,29.74,North,0,0.0,0.0,100,0.00,,SCT080,0.00,VWS V12.07,2013-06-16 12:50:00,
2013-06-16 08:00:00,58.0,58.0,29.75,North,0,0.0,1.0,100,0.00,,SCT080,0.00,VWS V12.07,2013-06-16 13:00:00,
2013-06-16 08:10:00,58.3,58.3,29.75,North,0,0.0,1.0,100,0.00,,SCT080,0.00,VWS V12.07,2013-06-16 13:10:00,
2013-06-16 08:20:00,59.2,59.2,29.74,North,0,0.0,2.0,100,0.00,,SCT080,0.00,VWS V12.07,2013-06-16 13:20:00,
2013-06-16 08:30:00,59.9,59.9,29.75,North,0,0.0,1.0,100,0.00,,SCT080,0.00,VWS V12.07,2013-06-16 13:30:00,
2013-06-16 08:40:00,60.4,60.4,29.75,WNW,292,0.0,2.0,100,0.00,,SCT080,0.00,VWS V12.07,2013-06-16 13:40:00,
2013-06-16 08:50:00,60.9,60.9,29.74,WNW,292,0.0,2.0,100,0.00,,SCT080,0.00,VWS V12.07,2013-06-16 13:50:00,
2013-06-16 09:00:00,62.1,62.1,29.75,ENE,68,0.0,2.0,100,0.00,,SCT080,0.00,VWS V12.07,2013-06-16 14:00:00,
2013-06-16 09:10:00,63.1,63.1,29.75,ENE,68,0.0,1.0,100,0.00,,SCT080,0.00,VWS V12.07,2013-06-16 14:10:00,
2013-06-16 09:20:00,63.7,63.1,29.75,East,90,0.0,3.0,98,0.00,,SCT080,0.00,VWS V12.07,2013-06-16 14:20:00,
2013-06-16 09:30:00,65.0,63.8,29.74,East,90,0.0,1.0,96,0.00,,SCT080,0.00,VWS V12.07,2013-06-16 14:30:00,
2013-06-16 09:40:00,65.5,63.1,29.74,SSW,202,0.0,4.0,92,0.00,,SCT080,0.00,VWS V12.07,2013-06-16 14:40:00,
2013-06-16 09:50:00,66.4,62.7,29.74,SSW,202,0.0,2.0,88,0.00,,SCT080,0.00,VWS V12.07,2013-06-16 14:50:00,
2013-06-16 10:00:00,67.3,61.3,29.73,WSW,248,0.0,3.0,81,0.00,,SCT080,0.00,VWS V12.07,2013-06-16 15:00:00,
2013-06-16 10:10:00,67.4,59.6,29.73,NE,45,1.0,7.0,76,0.00,,SCT080,0.00,VWS V12.07,2013-06-16 15:10:00,
2013-06-16 10:20:00,68.1,60.6,29.73,East,90,1.0,5.0,77,0.00,,SCT080,0.00,VWS V12.07,2013-06-16 15:20:00,
2013-06-16 10:30:00,68.8,59.4,29.72,NE,45,1.0,3.0,72,0.00,,SCT080,0.00,VWS V12.07,2013-06-16 15:30:00,
2013-06-16 10:40:00,69.6,59.4,29.72,NE,45,1.0,4.0,70,0.00,,SCT080,0.00,VWS V12.07,2013-06-16 15:40:00,
2013-06-16 10:50:00,70.1,60.7,29.72,NNW,338,1.0,9.0,72,0.00,,SCT080,0.00,VWS V12.07,2013-06-16 15:50:00,
2013-06-16 11:00:00,71.1,58.3,29.72,East,90,1.0,5.0,64,0.00,,SCT080,0.00,VWS V12.07,2013-06-16 16:00:00,
2013-06-16 11:10:00,71.6,57.5,29.72,NNE,22,1.0,7.0,61,0.00,,SCT080,0.00,VWS V12.07,2013-06-16 16:10:00,
2013-06-16 11:20:00,72.1,55.1,29.72,North,0,1.0,4.0,55,0.00,,SCT080,0.00,VWS V12.07,2013-06-16 16:20:00,
2013-06-16 11:30:00,72.7,58.0,29.72,NE,45,1.0,4.0,60,0.00,,SCT080,0.00,VWS V12.07,2013-06-16 16:30:00,
2013-06-16 11:40:00,72.5,57.4,29.72,West,270,1.0,7.0,59,0.00,,SCT080,0.00,VWS V12.07,2013-06-16 16:40:00,
2013-06-16 11:50:00,72.7,55.6,29.72,NNW,338,2.0,11.0,55,0.00,,SCT080,0.00,VWS V12.07,2013-06-16 16:50:00,
2013-06-16 12:00:00,74.2,55.5,29.72,ENE,68,1.0,6.0,52,0.00,,SCT080,0.00,VWS V12.07,2013-06-16 17:00:00,
2013-06-16 12:10:00,74.6,54.8,29.72,NE,45,1.0,5.0,50,0.00,,SCT080,0.00,VWS V12.07,2013-06-16 17:10:00,
2013-06-16 12:20:00,74.4,51.1,29.72,West,270,2.0,6.0,44,0.00,,SCT080,0.00,VWS V12.07,2013-06-16 17:20:00,
2013-06-16 12:30:00,75.4,52.6,29.72,ENE,68,1.0,6.0,45,0.00,,SCT080,0.00,VWS V12.07,2013-06-16 17:30:00,
2013-06-16 12:40:00,74.9,53.9,29.72,West,270,1.0,5.0,48,0.00,,SCT080,0.00,VWS V12.07,2013-06-16 17:40:00,
2013-06-16 12:50:00,63.9,63.9,29.76,ESE,112,1.0,3.0,100,0.00,,OVC008,0.11,VWS V12.07,2013-06-16 17:50:00,
2013-06-16 12:51:00,59.2,59.2,29.76,North,0,0.0,5.0,100,0.15,,OVC008,0.24,VWS V12.07,2013-06-16 17:51:00,
2013-06-16 12:55:00,68.8,59.4,29.72,NE,45,1.0,7.0,72,0.00,,OVC008,0.00,VWS V12.07,2013-06-16 17:55:00,
2013-06-16 12:56:00,72.1,55.1,29.72,North,0,1.0,9.0,55,0.00,,OVC008,0.00,VWS V12.07,2013-06-16 17:56:00,
2013-06-16 12:57:00,75.8,50.5,29.72,ESE,113,0.0,0.0,41,0.12,,SCT080,0.00,VWS V12.07,2013-06-16 17:57:00,
2013-06-16 13:01:00,76.3,50.9,29.71,NE,51,0.0,3.0,41,0.12,,SCT080,0.00,VWS V12.07,2013-06-16 18:01:00,
2013-06-16 13:02:00,76.1,50.7,29.71,NE,56,0.0,3.0,41,0.12,,SCT080,0.00,VWS V12.07,2013-06-16 18:02:00,
2013-06-16 13:06:00,76.5,51.1,29.71,North,0,0.0,6.0,41,0.12,,SCT080,0.00,VWS V12.07,2013-06-16 18:06:00,
2013-06-16 13:07:00,76.5,56.5,29.71,NNE,12,2.0,6.0,50,0.12,,SCT080,0.00,VWS V12.07,2013-06-16 18:07:00,
2013-06-16 13:08:00,76.5,56.5,29.71,NNE,12,1.0,6.0,50,0.12,,SCT080,0.00,VWS V12.07,2013-06-16 18:08:00,
2013-06-16 13:11:00,76.0,51.9,29.71,WSW,257,0.0,7.0,43,0.12,,SCT080,0.00,VWS V12.07,2013-06-16 18:11:00,
2013-06-16 13:12:00,76.0,50.0,29.71,WSW,257,0.0,7.0,40,0.12,,SCT080,0.00,VWS V12.07,2013-06-16 18:12:00,
2013-06-16 13:13:00,76.1,51.4,29.71,WSW,257,0.0,7.0,42,0.12,,SCT080,0.00,VWS V12.07,2013-06-16 18:13:00,
2013-06-16 13:16:00,76.3,54.6,29.71,NNE,25,3.0,4.0,47,0.12,,SCT080,0.00,VWS V12.07,2013-06-16 18:16:00,
2013-06-16 13:17:00,76.3,52.2,29.71,NW,325,1.0,4.0,43,0.12,,SCT080,0.00,VWS V12.07,2013-06-16 18:17:00,
2013-06-16 13:18:00,76.3,51.5,29.71,NW,325,0.0,4.0,42,0.12,,SCT080,0.00,VWS V12.07,2013-06-16 18:18:00,
2013-06-16 13:22:00,76.0,50.6,29.71,NE,47,5.0,5.0,41,0.12,,SCT080,0.00,VWS V12.07,2013-06-16 18:22:00,
2013-06-16 13:23:00,75.6,50.3,29.71,NW,326,1.0,5.0,41,0.12,,SCT080,0.00,VWS V12.07,2013-06-16 18:23:00,
2013-06-16 13:24:00,75.4,50.1,29.71,NW,326,0.0,5.0,41,0.12,,SCT080,0.00,VWS V12.07,2013-06-16 18:24:00,
2013-06-16 13:27:00,74.9,52.8,29.71,NW,326,0.0,0.0,46,0.12,,SCT080,0.00,VWS V12.07,2013-06-16 18:27:00,
2013-06-16 13:28:00,74.7,51.4,29.71,NW,326,0.0,1.0,44,0.12,,SCT080,0.00,VWS V12.07,2013-06-16 18:28:00,
2013-06-16 13:29:00,74.6,51.3,29.71,NNE,20,0.0,2.0,44,0.12,,SCT080,0.00,VWS V12.07,2013-06-16 18:29:00,
2013-06-16 13:32:00,74.2,50.9,29.71,NNW,340,0.0,5.0,44,0.12,,SCT080,0.00,VWS V12.07,2013-06-16 18:32:00,
2013-06-16 13:33:00,74.2,50.3,29.71,West,264,2.0,5.0,43,0.12,,SCT080,0.00,VWS V12.07,2013-06-16 18:33:00,
2013-06-16 13:34:00,74.0,51.3,29.71,NNE,17,3.0,7.0,45,0.12,,SCT080,0.00,VWS V12.07,2013-06-16 18:34:00,
2013-06-16 13:35:00,74.0,51.3,29.71,NNE,20,0.0,3.0,45,0.12,,SCT080,0.00,VWS V12.07,2013-06-16 18:35:00,
2013-06-16 13:37:00,73.9,51.2,29.71,SSW,209,2.0,6.0,45,0.12,,SCT080,0.00,VWS V12.07,2013-06-16 18:37:00,
2013-06-16 13:38:00,74.2,52.7,29.71,West,260,4.0,6.0,47,0.12,,BKN080,0.00,VWS V12.07,2013-06-16 18:38:00,
2013-06-16 13:39:00,74.4,50.5,29.71,NE,38,6.0,6.0,43,0.12,,BKN080,0.00,VWS V12.07,2013-06-16 18:39:00,
2013-06-16 13:40:00,74.4,50.5,29.71,NNE,30,1.0,10.0,43,0.12,,BKN080,0.00,VWS V12.07,2013-06-16 18:40:00,
2013-06-16 13:42:00,74.9,52.2,29.71,South,189,1.0,10.0,45,0.12,,BKN080,0.00,VWS V12.07,2013-06-16 18:42:00,
2013-06-16 13:43:00,75.1,52.3,29.71,South,189,2.0,10.0,45,0.12,,BKN080,0.00,VWS V12.07,2013-06-16 18:43:00,
2013-06-16 13:45:00,75.1,51.1,29.71,South,189,0.0,10.0,43,0.12,,BKN080,0.00,VWS V12.07,2013-06-16 18:45:00,
2013-06-16 13:46:00,75.1,51.1,29.71,SE,131,0.0,10.0,43,0.12,,BKN080,0.00,VWS V12.07,2013-06-16 18:46:00,
2013-06-16 13:48:00,74.9,52.8,29.71,SE,131,0.0,10.0,46,0.12,,BKN080,0.00,VWS V12.07,2013-06-16 18:48:00,
2013-06-16 13:50:00,74.6,53.1,29.71,ENE,75,4.0,4.0,47,0.12,,BKN080,0.00,VWS V12.07,2013-06-16 18:50:00,
2013-06-16 13:51:00,74.6,55.3,29.71,NNE,18,1.0,4.0,51,0.12,,BKN090,0.00,VWS V12.07,2013-06-16 18:51:00,
2013-06-16 13:53:00,74.6,55.3,29.71,NW,322,1.0,4.0,51,0.12,,BKN090,0.00,VWS V12.07,2013-06-16 18:53:00,
2013-06-16 13:55:00,74.6,53.1,29.71,NNW,347,0.0,2.0,47,0.12,,BKN090,0.00,VWS V12.07,2013-06-16 18:55:00,
2013-06-16 13:56:00,74.6,53.1,29.71,NE,37,0.0,4.0,47,0.12,,BKN090,0.00,VWS V12.07,2013-06-16 18:56:00,
2013-06-16 13:58:00,74.4,51.7,29.71,East,86,3.0,4.0,45,0.12,,BKN090,0.00,VWS V12.07,2013-06-16 18:58:00,
2013-06-16 14:00:00,73.9,51.2,29.71,ENE,77,0.0,4.0,45,0.12,,BKN090,0.00,VWS V12.07,2013-06-16 19:00:00,
2013-06-16 14:01:00,73.9,52.4,29.71,ENE,77,0.0,4.0,47,0.12,,BKN090,0.00,VWS V12.07,2013-06-16 19:01:00,
2013-06-16 14:03:00,73.9,52.4,29.71,North,3,0.0,10.0,47,0.12,,BKN090,0.00,VWS V12.07,2013-06-16 19:03:00,
2013-06-16 14:06:00,74.4,52.9,29.71,WSW,249,1.0,10.0,47,0.00,,BKN090,0.00,VWS V12.07,2013-06-16 19:06:00,
2013-06-16 14:08:00,74.7,52.6,29.71,SSW,210,0.0,10.0,46,0.00,,BKN090,0.00,VWS V12.07,2013-06-16 19:08:00,
2013-06-16 14:10:00,74.7,51.4,29.71,ESE,115,1.0,4.0,44,0.00,,BKN090,0.00,VWS V12.07,2013-06-16 19:10:00,
2013-06-16 14:11:00,74.7,53.2,29.71,North,358,1.0,4.0,47,0.00,,BKN090,0.00,VWS V12.07,2013-06-16 19:11:00,
2013-06-16 14:12:00,74.7,51.4,29.71,NNW,345,1.0,4.0,44,0.00,,BKN090,0.00,VWS V12.07,2013-06-16 19:12:00,
2013-06-16 14:13:00,74.6,51.9,29.71,NE,40,5.0,6.0,45,0.00,,BKN090,0.00,VWS V12.07,2013-06-16 19:13:00,
2013-06-16 14:16:00,74.2,52.1,29.71,NNE,28,0.0,3.0,46,0.00,,BKN090,0.00,VWS V12.07,2013-06-16 19:16:00,
2013-06-16 14:17:00,74.0,52.5,29.71,WNW,303,2.0,4.0,47,0.00,,BKN090,0.00,VWS V12.07,2013-06-16 19:17:00,
2013-06-16 14:18:00,73.9,53.0,29.71,North,358,0.0,4.0,48,0.00,,BKN090,0.00,VWS V12.07,2013-06-16 19:18:00,
2013-06-16 14:19:00,73.7,53.4,29.71,North,358,0.0,4.0,49,0.00,,BKN090,0.00,VWS V12.07,2013-06-16 19:19:00,
2013-06-16 14:21:00,73.3,54.1,29.71,ENE,77,0.0,4.0,51,0.00,,BKN090,0.00,VWS V12.07,2013-06-16 19:21:00,
2013-06-16 14:22:00,73.3,51.9,29.71,ENE,77,0.0,4.0,47,0.00,,BKN090,0.00,VWS V12.07,2013-06-16 19:22:00,
2013-06-16 14:24:00,73.5,54.3,29.71,East,80,1.0,4.0,51,0.00,,BKN090,0.00,VWS V12.07,2013-06-16 19:24:00,
2013-06-16 14:27:00,74.2,52.7,29.71,NNW,335,3.0,5.0,47,0.00,,BKN090,0.00,VWS V12.07,2013-06-16 19:27:00,
2013-06-16 14:29:00,74.6,51.3,29.71,NNW,328,2.0,6.0,44,0.00,,BKN090,0.00,VWS V12.07,2013-06-16 19:29:00,
2013-06-16 14:32:00,74.7,50.7,29.71,WNW,283,2.0,7.0,43,0.00,,BKN090,0.00,VWS V12.07,2013-06-16 19:32:00,
2013-06-16 14:33:00,74.6,53.1,29.71,West,277,2.0,7.0,47,0.00,,BKN090,0.00,VWS V12.07,2013-06-16 19:33:00,
2013-06-16 14:34:00,74.7,51.4,29.71,WSW,246,1.0,7.0,44,0.00,,BKN090,0.00,VWS V12.07,2013-06-16 19:34:00,
2013-06-16 14:37:00,75.1,52.3,29.71,ENE,70,1.0,5.0,45,0.00,,BKN090,0.00,VWS V12.07,2013-06-16 19:37:00,
2013-06-16 14:38:00,75.1,53.5,29.71,SSW,213,2.0,5.0,47,0.00,,BKN110,0.00,VWS V12.07,2013-06-16 19:38:00,
2013-06-16 14:40:00,75.8,51.7,29.71,North,7,2.0,5.0,43,0.00,,BKN110,0.00,VWS V12.07,2013-06-16 19:40:00,
2013-06-16 14:41:00,76.0,50.6,29.71,WSW,256,3.0,5.0,41,0.00,,BKN110,0.00,VWS V12.07,2013-06-16 19:41:00,
2013-06-16 14:42:00,76.3,50.2,29.71,South,173,5.0,5.0,40,0.00,,BKN110,0.00,VWS V12.07,2013-06-16 19:42:00,
2013-06-16 14:43:00,76.5,50.4,29.70,SW,231,3.0,11.0,40,0.00,,BKN110,0.00,VWS V12.07,2013-06-16 19:43:00,
2013-06-16 14:44:00,76.5,49.0,29.70,West,268,1.0,11.0,38,0.00,,BKN110,0.00,VWS V12.07,2013-06-16 19:44:00,
2013-06-16 14:45:00,76.5,46.8,29.70,NNW,345,1.0,3.0,35,0.00,,BKN110,0.00,VWS V12.07,2013-06-16 19:45:00,
2013-06-16 14:46:00,76.5,49.0,29.70,WSW,238,2.0,3.0,38,0.00,,BKN110,0.00,VWS V12.07,2013-06-16 19:46:00,
2013-06-16 14:48:00,76.5,48.3,29.70,NNE,15,0.0,6.0,37,0.00,,BKN110,0.00,VWS V12.07,2013-06-16 19:48:00,
2013-06-16 14:49:00,76.8,48.6,29.70,ENE,65,2.0,7.0,37,0.00,,BKN110,0.00,VWS V12.07,2013-06-16 19:49:00,
2013-06-16 14:50:00,77.0,48.0,29.70,SW,226,2.0,7.0,36,0.00,,SCT120,0.00,VWS V12.07,2013-06-16 19:50:00,
2013-06-16 14:51:00,77.2,49.7,29.70,SW,226,2.0,7.0,38,0.00,,SCT120,0.00,VWS V12.07,2013-06-16 19:51:00,
2013-06-16 14:53:00,77.2,49.7,29.70,WSW,252,3.0,7.0,38,0.00,,SCT120,0.00,VWS V12.07,2013-06-16 19:53:00,
2013-06-16 14:55:00,77.4,49.1,29.70,WNW,290,0.0,4.0,37,0.00,,SCT120,0.00,VWS V12.07,2013-06-16 19:55:00,
2013-06-16 14:56:00,77.4,48.4,29.70,West,279,1.0,4.0,36,0.00,,SCT120,0.00,VWS V12.07,2013-06-16 19:56:00,
2013-06-16 14:58:00,77.6,47.0,29.70,SSW,199,2.0,4.0,34,0.00,,SCT120,0.00,VWS V12.07,2013-06-16 19:58:00,
2013-06-16 15:00:00,77.6,48.6,29.70,NE,44,3.0,11.0,36,0.00,,SCT120,0.00,VWS V12.07,2013-06-16 20:00:00,
2013-06-16 15:01:00,77.6,48.6,29.70,NW,307,1.0,11.0,36,0.00,,SCT120,0.00,VWS V12.07,2013-06-16 20:01:00,
2013-06-16 15:03:00,77.4,47.6,29.70,NE,56,2.0,11.0,35,0.00,,SCT120,0.00,VWS V12.07,2013-06-16 20:03:00,
2013-06-16 15:04:00,77.2,48.9,29.70,NNE,13,2.0,11.0,37,0.00,,SCT120,0.00,VWS V12.07,2013-06-16 20:04:00,
2013-06-16 15:06:00,77.0,48.8,29.70,West,262,2.0,11.0,37,0.00,,SCT120,0.00,VWS V12.07,2013-06-16 20:06:00,
2013-06-16 15:08:00,76.7,46.2,29.70,West,276,2.0,4.0,34,0.00,,SCT120,0.00,VWS V12.07,2013-06-16 20:08:00,
2013-06-16 15:09:00,76.5,46.8,29.70,NW,305,2.0,4.0,35,0.00,,SCT120,0.00,VWS V12.07,2013-06-16 20:09:00,
2013-06-16 15:11:00,76.5,47.6,29.70,ENE,68,3.0,9.0,36,0.00,,SCT120,0.00,VWS V12.07,2013-06-16 20:11:00,
2013-06-16 15:12:00,76.5,49.7,29.70,ENE,68,0.0,9.0,39,0.00,,SCT120,0.00,VWS V12.07,2013-06-16 20:12:00,
2013-06-16 15:13:00,76.3,51.5,29.71,East,80,0.0,9.0,42,0.00,,SCT120,0.00,VWS V12.07,2013-06-16 20:13:00,
2013-06-16 15:15:00,76.3,49.5,29.71,West,261,2.0,3.0,39,0.00,,SCT120,0.00,VWS V12.07,2013-06-16 20:15:00,
2013-06-16 15:16:00,76.3,50.2,29.71,West,269,1.0,3.0,40,0.00,,SCT120,0.00,VWS V12.07,2013-06-16 20:16:00,
2013-06-16 15:17:00,76.1,50.7,29.71,West,269,1.0,3.0,41,0.00,,SCT120,0.00,VWS V12.07,2013-06-16 20:17:00,
2013-06-16 15:18:00,76.1,49.4,29.71,NNW,336,3.0,3.0,39,0.00,,SCT120,0.00,VWS V12.07,2013-06-16 20:18:00,
2013-06-16 15:19:00,76.0,47.9,29.71,NW,322,3.0,7.0,37,0.00,,SCT120,0.00,VWS V12.07,2013-06-16 20:19:00,
2013-06-16 15:20:00,75.3,48.0,29.71,SE,144,6.0,8.0,38,0.00,,SCT120,0.00,VWS V12.07,2013-06-16 20:20:00,
2013-06-16 15:22:00,74.6,47.3,29.71,East,94,3.0,8.0,38,0.00,,SCT120,0.00,VWS V12.07,2013-06-16 20:22:00,
2013-06-16 15:23:00,74.4,49.2,29.71,NNE,15,2.0,8.0,41,0.00,,SCT120,0.00,VWS V12.07,2013-06-16 20:23:00,
2013-06-16 15:24:00,73.7,50.5,29.71,NNW,335,2.0,8.0,44,0.00,,SCT120,0.00,VWS V12.07,2013-06-16 20:24:00,
2013-06-16 15:25:00,73.0,52.7,29.71,North,11,3.0,3.0,49,0.00,,SCT120,0.00,VWS V12.07,2013-06-16 20:25:00,
2013-06-16 15:27:00,71.8,52.2,29.71,North,358,3.0,4.0,50,0.00,,SCT120,0.00,VWS V12.07,2013-06-16 20:27:00,
2013-06-16 15:28:00,71.5,51.9,29.71,North,358,1.0,4.0,50,0.00,,SCT120,0.00,VWS V12.07,2013-06-16 20:28:00,
2013-06-16 15:29:00,70.6,51.6,29.74,NW,305,3.0,4.0,51,0.00,,SCT120,0.00,VWS V12.07,2013-06-16 20:29:00,
2013-06-16 15:30:00,69.9,49.3,29.74,North,349,1.0,4.0,48,0.00,,SCT120,0.00,VWS V12.07,2013-06-16 20:30:00,
2013-06-16 15:33:00,69.3,53.0,29.74,ENE,72,1.0,0.0,56,0.00,,SCT120,0.00,VWS V12.07,2013-06-16 20:33:00,
2013-06-16 15:35:00,68.8,51.5,29.74,ENE,57,2.0,2.0,54,0.00,,SCT120,0.00,VWS V12.07,2013-06-16 20:35:00,
2013-06-16 15:36:00,68.4,51.1,29.74,NNE,16,3.0,4.0,54,0.00,,SCT120,0.00,VWS V12.07,2013-06-16 20:36:00,
2013-06-16 15:38:00,68.1,50.8,29.74,NNW,348,1.0,11.0,54,0.00,,SCT080,0.00,VWS V12.07,2013-06-16 20:38:00,
2013-06-16 15:39:00,67.9,50.7,29.74,NW,309,0.0,11.0,54,0.00,,SCT080,0.00,VWS V12.07,2013-06-16 20:39:00,
2013-06-16 15:40:00,67.9,49.7,29.74,NE,39,2.0,11.0,52,0.00,,SCT080,0.00,VWS V12.07,2013-06-16 20:40:00,
2013-06-16 15:42:00,67.8,49.0,29.74,NE,37,2.0,11.0,51,0.00,,SCT080,0.00,VWS V12.07,2013-06-16 20:42:00,
2013-06-16 15:43:00,67.8,49.5,29.75,NE,37,0.0,11.0,52,0.00,,SCT080,0.00,VWS V12.07,2013-06-16 20:43:00,
2013-06-16 15:44:00,67.8,51.5,29.75,NE,37,0.0,11.0,56,0.00,,SCT080,0.00,VWS V12.07,2013-06-16 20:44:00,
2013-06-16 15:45:00,67.8,51.5,29.75,NE,37,0.0,1.0,56,0.00,,SCT080,0.00,VWS V12.07,2013-06-16 20:45:00,
2013-06-16 15:47:00,67.8,52.0,29.75,SSE,155,0.0,7.0,57,0.00,,SCT080,0.00,VWS V12.07,2013-06-16 20:47:00,
2013-06-16 15:48:00,67.8,50.6,29.75,North,353,1.0,7.0,54,0.00,,SCT080,0.00,VWS V12.07,2013-06-16 20:48:00,
2013-06-16 15:49:00,67.8,50.6,29.75,West,279,1.0,7.0,54,0.00,,SCT080,0.00,VWS V12.07,2013-06-16 20:49:00,
2013-06-16 15:50:00,67.8,50.6,29.75,West,279,2.0,7.0,54,0.00,,SCT080,0.00,VWS V12.07,2013-06-16 20:50:00,
2013-06-16 15:52:00,67.6,49.9,29.75,East,93,2.0,7.0,53,0.00,,BKN120,0.00,VWS V12.07,2013-06-16 20:52:00,
2013-06-16 15:54:00,67.8,49.5,29.75,South,183,0.0,7.0,52,0.00,,BKN120,0.00,VWS V12.07,2013-06-16 20:54:00,
2013-06-16 15:55:00,67.8,49.5,29.75,South,182,0.0,1.0,52,0.00,,BKN120,0.00,VWS V12.07,2013-06-16 20:55:00,
2013-06-16 15:57:00,67.8,51.5,29.75,NE,34,1.0,3.0,56,0.00,,BKN120,0.00,VWS V12.07,2013-06-16 20:57:00,
2013-06-16 15:59:00,67.4,51.7,29.76,ESE,108,0.0,3.0,57,0.00,,BKN120,0.00,VWS V12.07,2013-06-16 20:59:00,
2013-06-16 16:00:00,67.4,51.7,29.76,SSW,203,3.0,3.0,57,0.00,,BKN120,0.00,VWS V12.07,2013-06-16 21:00:00,
2013-06-16 16:01:00,67.4,51.2,29.76,SSW,202,0.0,3.0,56,0.00,,BKN120,0.00,VWS V12.07,2013-06-16 21:01:00,
2013-06-16 16:02:00,67.1,50.9,29.76,SSW,202,0.0,3.0,56,0.00,,BKN120,0.00,VWS V12.07,2013-06-16 21:02:00,
2013-06-16 16:04:00,67.1,51.4,29.76,ENE,77,0.0,1.0,57,0.00,,BKN120,0.00,VWS V12.07,2013-06-16 21:04:00,
2013-06-16 16:05:00,67.1,51.4,29.76,ENE,77,0.0,1.0,57,0.00,,BKN120,0.00,VWS V12.07,2013-06-16 21:05:00,
2013-06-16 16:06:00,66.9,51.2,29.76,ENE,77,0.0,1.0,57,0.00,,BKN120,0.00,VWS V12.07,2013-06-16 21:06:00,
2013-06-16 16:08:00,66.8,49.6,29.76,NE,37,0.0,6.0,54,0.00,,BKN120,0.00,VWS V12.07,2013-06-16 21:08:00,
2013-06-16 16:10:00,66.8,50.1,29.76,NE,37,3.0,6.0,55,0.00,,BKN120,0.00,VWS V12.07,2013-06-16 21:10:00,
2013-06-16 16:11:00,66.8,50.1,29.76,NE,37,2.0,6.0,55,0.00,,BKN120,0.00,VWS V12.07,2013-06-16 21:11:00,
2013-06-16 16:14:00,66.8,51.1,29.76,ENE,70,0.0,6.0,57,0.00,,BKN120,0.00,VWS V12.07,2013-06-16 21:14:00,
2013-06-16 16:15:00,66.8,52.9,29.76,ENE,70,0.0,0.0,61,0.00,,BKN120,0.00,VWS V12.07,2013-06-16 21:15:00,
2013-06-16 16:16:00,66.8,53.4,29.76,ENE,70,0.0,0.0,62,0.00,,BKN120,0.00,VWS V12.07,2013-06-16 21:16:00,
2013-06-16 16:20:00,67.1,52.3,29.76,SSW,198,0.0,3.0,59,0.00,,BKN120,0.00,VWS V12.07,2013-06-16 21:20:00,
2013-06-16 16:21:00,67.1,51.4,29.76,SSW,198,0.0,3.0,57,0.00,,BKN120,0.00,VWS V12.07,2013-06-16 21:21:00,
2013-06-16 16:26:00,67.6,50.9,29.76,SSW,195,0.0,1.0,55,0.00,,BKN120,0.00,VWS V12.07,2013-06-16 21:26:00,
2013-06-16 16:27:00,67.8,49.5,29.76,SSW,195,0.0,1.0,52,0.00,,BKN120,0.00,VWS V12.07,2013-06-16 21:27:00,
2013-06-16 16:31:00,68.6,50.3,29.75,ESE,103,0.0,3.0,52,0.00,,BKN120,0.00,VWS V12.07,2013-06-16 21:31:00,
2013-06-16 16:32:00,68.8,50.5,29.75,ESE,103,0.0,3.0,52,0.00,,BKN120,0.00,VWS V12.07,2013-06-16 21:32:00,
2013-06-16 16:36:00,69.4,53.0,29.75,SE,127,2.0,2.0,56,0.00,,BKN120,0.00,VWS V12.07,2013-06-16 21:36:00,
2013-06-16 16:37:00,69.6,51.7,29.75,SE,127,2.0,3.0,53,0.00,,BKN120,0.00,VWS V12.07,2013-06-16 21:37:00,
2013-06-16 16:41:00,70.1,51.2,29.75,SE,127,2.0,3.0,51,0.00,,BKN100,0.00,VWS V12.07,2013-06-16 21:41:00,
2013-06-16 16:42:00,70.3,51.3,29.75,SE,127,0.0,3.0,51,0.00,,BKN100,0.00,VWS V12.07,2013-06-16 21:42:00,
2013-06-16 16:43:00,70.3,50.3,29.75,SE,127,0.0,3.0,49,0.00,,BKN100,0.00,VWS V12.07,2013-06-16 21:43:00,
2013-06-16 16:47:00,70.6,52.1,29.74,SE,127,1.0,3.0,52,0.00,,BKN100,0.00,VWS V12.07,2013-06-16 21:47:00,
2013-06-16 16:48:00,70.6,54.2,29.74,SE,127,0.0,3.0,56,0.00,,BKN100,0.00,VWS V12.07,2013-06-16 21:48:00,
2013-06-16 16:52:00,70.8,53.3,29.74,SE,127,0.0,3.0,54,0.00,,BKN110,0.00,VWS V12.07,2013-06-16 21:52:00,
2013-06-16 16:53:00,70.8,52.8,29.74,SE,127,1.0,3.0,53,0.00,,BKN110,0.00,VWS V12.07,2013-06-16 21:53:00,
2013-06-16 16:57:00,70.9,52.9,29.74,SE,127,1.0,2.0,53,0.00,,BKN110,0.00,VWS V12.07,2013-06-16 21:57:00,
2013-06-16 16:58:00,70.9,50.8,29.74,SE,127,1.0,2.0,49,0.00,,BKN110,0.00,VWS V12.07,2013-06-16 21:58:00,
2013-06-16 16:59:00,70.9,50.2,29.74,SE,125,0.0,2.0,48,0.00,,BKN110,0.00,VWS V12.07,2013-06-16 21:59:00,
2013-06-16 17:03:00,71.3,52.3,29.74,East,94,1.0,5.0,51,0.00,,BKN110,0.00,VWS V12.07,2013-06-16 22:03:00,
2013-06-16 17:04:00,71.5,51.9,29.74,SE,129,2.0,5.0,50,0.00,,BKN110,0.00,VWS V12.07,2013-06-16 22:04:00,
2013-06-16 17:08:00,71.6,51.5,29.74,NE,42,4.0,5.0,49,0.00,,BKN110,0.00,VWS V12.07,2013-06-16 22:08:00,
2013-06-16 17:09:00,71.6,49.2,29.74,North,0,2.0,9.0,45,0.00,,BKN110,0.00,VWS V12.07,2013-06-16 22:09:00,
2013-06-16 17:13:00,72.1,53.0,29.73,South,180,0.0,9.0,51,0.00,,BKN110,0.00,VWS V12.07,2013-06-16 22:13:00,
2013-06-16 17:14:00,72.1,53.0,29.73,South,180,2.0,9.0,51,0.00,,BKN110,0.00,VWS V12.07,2013-06-16 22:14:00,
2013-06-16 17:15:00,72.1,51.9,29.73,NE,39,1.0,5.0,49,0.00,,BKN110,0.00,VWS V12.07,2013-06-16 22:15:00,
2013-06-16 17:19:00,72.3,52.6,29.73,NE,39,0.0,5.0,50,0.00,,BKN110,0.00,VWS V12.07,2013-06-16 22:19:00,
2013-06-16 17:20:00,72.5,52.3,29.73,NE,39,0.0,5.0,49,0.00,,BKN110,0.00,VWS V12.07,2013-06-16 22:20:00,
2013-06-16 17:24:00,72.5,53.4,29.73,South,179,0.0,5.0,51,0.00,,BKN110,0.00,VWS V12.07,2013-06-16 22:24:00,
2013-06-16 17:25:00,72.5,53.4,29.73,South,184,0.0,4.0,51,0.00,,BKN110,0.00,VWS V12.07,2013-06-16 22:25:00,
2013-06-16 17:26:00,72.5,50.6,29.73,South,184,0.0,4.0,46,0.00,,BKN110,0.00,VWS V12.07,2013-06-16 22:26:00,
2013-06-16 17:29:00,72.7,50.8,29.72,South,174,0.0,4.0,46,0.00,,BKN110,0.00,VWS V12.07,2013-06-16 22:29:00,
2013-06-16 17:30:00,72.7,50.8,29.72,South,174,0.0,4.0,46,0.00,,BKN110,0.00,VWS V12.07,2013-06-16 22:30:00,
2013-06-16 17:31:00,72.7,51.9,29.72,South,174,0.0,4.0,48,0.00,,BKN110,0.00,VWS V12.07,2013-06-16 22:31:00,
2013-06-16 17:34:00,72.7,53.0,29.72,South,174,0.0,2.0,50,0.00,,BKN110,0.00,VWS V12.07,2013-06-16 22:34:00,
2013-06-16 17:35:00,72.7,53.0,29.72,South,174,0.0,2.0,50,0.00,,BKN110,0.00,VWS V12.07,2013-06-16 22:35:00,
2013-06-16 17:37:00,72.7,55.1,29.72,South,174,0.0,2.0,54,0.00,,BKN110,0.00,VWS V12.07,2013-06-16 22:37:00,
2013-06-16 17:40:00,72.5,54.9,29.72,South,174,0.0,2.0,54,0.00,,BKN110,0.00,VWS V12.07,2013-06-16 22:40:00,
2013-06-16 17:41:00,72.5,54.9,29.72,South,174,0.0,2.0,54,0.00,,BKN110,0.00,VWS V12.07,2013-06-16 22:41:00,
2013-06-16 17:42:00,72.5,53.9,29.72,South,174,0.0,2.0,52,0.00,,BKN110,0.00,VWS V12.07,2013-06-16 22:42:00,
2013-06-16 17:45:00,72.3,55.2,29.72,South,174,1.0,2.0,55,0.00,,BKN110,0.00,VWS V12.07,2013-06-16 22:45:00,
2013-06-16 17:46:00,72.3,56.2,29.72,South,174,0.0,2.0,57,0.00,,BKN110,0.00,VWS V12.07,2013-06-16 22:46:00,
2013-06-16 17:47:00,72.1,54.0,29.72,South,174,0.0,2.0,53,0.00,,BKN110,0.00,VWS V12.07,2013-06-16 22:47:00,
2013-06-16 17:50:00,72.1,54.6,29.72,South,174,0.0,2.0,54,0.00,,BKN110,0.00,VWS V12.07,2013-06-16 22:50:00,
2013-06-16 17:51:00,72.1,54.6,29.72,South,174,0.0,2.0,54,0.00,,BKN110,0.00,VWS V12.07,2013-06-16 22:51:00,
2013-06-16 17:52:00,72.1,54.6,29.72,South,174,0.0,2.0,54,0.00,,BKN110,0.00,VWS V12.07,2013-06-16 22:52:00,
2013-06-16 17:54:00,72.1,54.6,29.72,South,174,0.0,2.0,54,0.00,,BKN110,0.00,VWS V12.07,2013-06-16 22:54:00,
2013-06-16 17:56:00,72.0,55.5,29.72,South,174,0.0,1.0,56,0.00,,BKN110,0.00,VWS V12.07,2013-06-16 22:56:00,
2013-06-16 17:57:00,72.0,55.5,29.72,South,174,0.0,1.0,56,0.00,,BKN110,0.00,VWS V12.07,2013-06-16 22:57:00,
2013-06-16 17:59:00,72.0,55.5,29.72,South,174,0.0,1.0,56,0.00,,BKN110,0.00,VWS V12.07,2013-06-16 22:59:00,
2013-06-16 18:01:00,71.8,54.8,29.72,South,174,0.0,1.0,55,0.00,,SCT110,0.00,VWS V12.07,2013-06-16 23:01:00,
2013-06-16 18:02:00,71.8,54.8,29.72,South,174,0.0,1.0,55,0.00,,SCT110,0.00,VWS V12.07,2013-06-16 23:02:00,
2013-06-16 18:03:00,71.8,54.3,29.72,South,174,0.0,1.0,54,0.00,,SCT110,0.00,VWS V12.07,2013-06-16 23:03:00,
2013-06-16 18:04:00,71.8,54.3,29.72,South,174,0.0,1.0,54,0.00,,SCT110,0.00,VWS V12.07,2013-06-16 23:04:00,
2013-06-16 18:07:00,71.6,54.1,29.72,South,174,0.0,1.0,54,0.00,,SCT110,0.00,VWS V12.07,2013-06-16 23:07:00,
2013-06-16 18:08:00,71.6,54.1,29.72,South,174,0.0,1.0,54,0.00,,SCT120,0.00,VWS V12.07,2013-06-16 23:08:00,
2013-06-16 18:09:00,71.6,54.1,29.72,South,174,0.0,1.0,54,0.00,,SCT120,0.00,VWS V12.07,2013-06-16 23:09:00,
2013-06-16 18:12:00,71.5,54.0,29.72,South,174,0.0,1.0,54,0.00,,SCT120,0.00,VWS V12.07,2013-06-16 23:12:00,
2013-06-16 18:13:00,71.5,53.5,29.72,South,174,0.0,1.0,53,0.00,,SCT120,0.00,VWS V12.07,2013-06-16 23:13:00,
2013-06-16 18:14:00,71.3,53.3,29.72,South,174,0.0,1.0,53,0.00,,SCT120,0.00,VWS V12.07,2013-06-16 23:14:00,
2013-06-16 18:17:00,71.3,53.3,29.72,South,177,2.0,2.0,53,0.00,,SCT120,0.00,VWS V12.07,2013-06-16 23:17:00,
2013-06-16 18:18:00,71.1,55.1,29.72,NNW,340,3.0,4.0,57,0.00,,SCT120,0.00,VWS V12.07,2013-06-16 23:18:00,
2013-06-16 18:19:00,70.9,52.9,29.72,NNW,334,0.0,4.0,53,0.00,,SCT120,0.00,VWS V12.07,2013-06-16 23:19:00,
2013-06-16 18:22:00,70.4,54.0,29.72,NNE,26,3.0,5.0,56,0.00,,SCT120,0.00,VWS V12.07,2013-06-16 23:22:00,
2013-06-16 18:23:00,70.1,51.2,29.72,NNE,23,1.0,5.0,51,0.00,,SCT120,0.00,VWS V12.07,2013-06-16 23:23:00,
2013-06-16 18:24:00,70.1,52.2,29.72,North,11,5.0,5.0,53,0.00,,SCT120,0.00,VWS V12.07,2013-06-16 23:24:00,
2013-06-16 18:27:00,69.1,50.8,29.72,NW,325,2.0,6.0,52,0.00,,SCT120,0.00,VWS V12.07,2013-06-16 23:27:00,
2013-06-16 18:29:00,68.4,51.1,29.77,North,349,0.0,7.0,54,0.00,,SCT120,0.00,VWS V12.07,2013-06-16 23:29:00,
2013-06-16 18:32:00,67.4,51.2,29.77,NW,314,1.0,11.0,56,0.00,,SCT120,0.00,VWS V12.07,2013-06-16 23:32:00,
2013-06-16 18:34:00,66.8,51.6,29.77,North,0,1.0,4.0,58,0.00,,SCT120,0.00,VWS V12.07,2013-06-16 23:34:00,
2013-06-16 18:35:00,66.8,51.6,29.77,North,0,0.0,4.0,58,0.00,,SCT120,0.00,VWS V12.07,2013-06-16 23:35:00,
2013-06-16 18:37:00,66.1,51.8,29.77,NNW,345,0.0,4.0,60,0.00,,SCT120,0.00,VWS V12.07,2013-06-16 23:37:00,
2013-06-16 18:39:00,65.5,51.7,29.77,SE,134,0.0,4.0,61,0.00,,SCT110,0.00,VWS V12.07,2013-06-16 23:39:00,
2013-06-16 18:40:00,65.5,51.7,29.77,SE,134,0.0,4.0,61,0.00,,SCT110,0.00,VWS V12.07,2013-06-16 23:40:00,
2013-06-16 18:42:00,65.2,51.9,29.77,ENE,71,2.0,4.0,62,0.00,,SCT110,0.00,VWS V12.07,2013-06-16 23:42:00,
2013-06-16 18:45:00,64.7,51.8,29.77,SW,214,1.0,1.0,63,0.00,,SCT110,0.00,VWS V12.07,2013-06-16 23:45:00,
2013-06-16 18:46:00,64.5,52.1,29.77,North,9,3.0,7.0,64,0.00,,SCT110,0.00,VWS V12.07,2013-06-16 23:46:00,
2013-06-16 18:48:00,64.2,52.6,29.77,North,358,2.0,7.0,66,0.00,,SCT110,0.00,VWS V12.07,2013-06-16 23:48:00,
2013-06-16 18:50:00,63.7,52.5,29.77,NNW,332,0.0,7.0,67,0.00,,SCT110,0.00,VWS V12.07,2013-06-16 23:50:00,
2013-06-16 18:51:00,63.5,52.4,29.77,NNW,332,0.0,7.0,67,0.00,,BKN090,0.00,VWS V12.07,2013-06-16 23:51:00,
2013-06-16 18:53:00,63.1,53.2,29.77,NNW,332,1.0,7.0,70,0.00,,BKN090,0.00,VWS V12.07,2013-06-16 23:53:00,
2013-06-16 18:55:00,62.6,53.1,29.77,NNE,17,2.0,3.0,71,0.00,,BKN090,0.00,VWS V12.07,2013-06-16 23:55:00,
2013-06-16 18:56:00,62.4,53.3,29.77,North,0,0.0,4.0,72,0.00,,BKN090,0.00,VWS V12.07,2013-06-16 23:56:00,
2013-06-16 18:57:00,62.3,53.2,29.77,North,0,0.0,4.0,72,0.00,,BKN090,0.00,VWS V12.07,2013-06-16 23:57:00,
2013-06-16 18:58:00,62.0,53.3,29.78,WNW,297,0.0,4.0,73,0.00,,BKN090,0.00,VWS V12.07,2013-06-16 23:58:00,
2013-06-16 19:00:00,61.8,53.1,29.78,WNW,297,0.0,4.0,73,0.00,,BKN090,0.00,VWS V12.07,2013-06-17 00:00:00,
2013-06-16 19:01:00,61.6,52.9,29.78,WNW,297,0.0,4.0,73,0.00,,BKN090,0.00,VWS V12.07,2013-06-17 00:01:00,
2013-06-16 19:02:00,61.5,52.8,29.78,WNW,297,0.0,4.0,73,0.00,,BKN090,0.00,VWS V12.07,2013-06-17 00:02:00,
2013-06-16 19:04:00,61.3,53.0,29.78,WNW,297,0.0,4.0,74,0.00,,BKN090,0.00,VWS V12.07,2013-06-17 00:04:00,
2013-06-16 19:07:00,61.0,53.0,29.78,NNE,30,0.0,4.0,75,0.00,,BKN090,0.00,VWS V12.07,2013-06-17 00:07:00,
2013-06-16 19:08:00,61.3,53.0,29.78,WNW,297,0.0,4.0,74,0.00,,BKN090,0.00,VWS V12.07,2013-06-17 00:08:00,
2013-06-16 19:09:00,60.9,53.3,29.78,North,356,3.0,3.0,76,0.00,,BKN090,0.00,VWS V12.07,2013-06-17 00:09:00,
2013-06-16 19:12:00,60.5,53.3,29.78,North,356,0.0,3.0,77,0.00,,BKN120,0.00,VWS V12.07,2013-06-17 00:12:00,
2013-06-16 19:14:00,60.5,53.6,29.80,ENE,59,2.0,3.0,78,0.00,,BKN120,0.00,VWS V12.07,2013-06-17 00:14:00,
2013-06-16 19:17:00,60.4,53.9,29.80,SSW,211,0.0,3.0,79,0.00,,BKN120,0.00,VWS V12.07,2013-06-17 00:17:00,
2013-06-16 19:18:00,60.2,54.0,29.80,SSW,211,0.0,3.0,80,0.00,,BKN120,0.00,VWS V12.07,2013-06-17 00:18:00,
2013-06-16 19:19:00,60.1,53.9,29.80,SSW,211,0.0,3.0,80,0.00,,BKN120,0.00,VWS V12.07,2013-06-17 00:19:00,
2013-06-16 19:22:00,59.9,54.1,29.80,NNE,28,0.0,3.0,81,0.01,,BKN120,0.01,VWS V12.07,2013-06-17 00:22:00,
2013-06-16 19:23:00,59.8,54.3,29.80,NNE,28,0.0,3.0,82,0.01,,BKN120,0.01,VWS V12.07,2013-06-17 00:23:00,
2013-06-16 19:24:00,59.8,54.3,29.80,WNW,290,0.0,3.0,82,0.01,,BKN120,0.01,VWS V12.07,2013-06-17 00:24:00,
2013-06-16 19:27:00,59.5,54.7,29.80,North,6,0.0,2.0,84,0.01,,BKN120,0.01,VWS V12.07,2013-06-17 00:27:00,
2013-06-16 19:28:00,59.3,54.5,29.79,North,6,0.0,2.0,84,0.01,,BKN120,0.01,VWS V12.07,2013-06-17 00:28:00,
2013-06-16 19:29:00,59.3,54.8,29.79,NNE,13,0.0,2.0,85,0.01,,BKN120,0.01,VWS V12.07,2013-06-17 00:29:00,
2013-06-16 19:32:00,58.9,54.7,29.79,NNE,13,1.0,2.0,86,0.01,,BKN120,0.01,VWS V12.07,2013-06-17 00:32:00,
2013-06-16 19:33:00,58.7,54.5,29.79,NNE,13,0.0,2.0,86,0.01,,BKN120,0.01,VWS V12.07,2013-06-17 00:33:00,
2013-06-16 19:35:00,58.4,54.5,29.79,NNE,21,0.0,2.0,87,0.01,,BKN120,0.01,VWS V12.07,2013-06-17 00:35:00,
2013-06-16 19:38:00,58.1,54.6,29.79,NNE,21,0.0,2.0,88,0.01,,BKN120,0.01,VWS V12.07,2013-06-17 00:38:00,
2013-06-16 19:39:00,58.1,54.6,29.79,NNE,21,0.0,2.0,88,0.01,,OVC095,0.01,VWS V12.07,2013-06-17 00:39:00,
2013-06-16 19:40:00,58.0,54.5,29.79,NNE,21,0.0,2.0,88,0.01,,OVC095,0.01,VWS V12.07,2013-06-17 00:40:00,
2013-06-16 19:43:00,57.8,54.6,29.77,North,0,0.0,2.0,89,0.01,,OVC095,0.01,VWS V12.07,2013-06-17 00:43:00,
2013-06-16 19:44:00,57.8,54.6,29.77,North,0,0.0,2.0,89,0.01,,OVC095,0.01,VWS V12.07,2013-06-17 00:44:00,
2013-06-16 19:46:00,57.6,54.7,29.77,North,0,0.0,0.0,90,0.01,,OVC095,0.01,VWS V12.07,2013-06-17 00:46:00,
2013-06-16 19:48:00,57.6,55.3,29.77,North,0,0.0,0.0,92,0.01,,OVC095,0.01,VWS V12.07,2013-06-17 00:48:00,
2013-06-16 19:49:00,57.5,55.5,29.77,North,0,0.0,1.0,93,0.01,,OVC095,0.01,VWS V12.07,2013-06-17 00:49:00,
2013-06-16 19:50:00,57.5,55.8,29.77,West,276,3.0,5.0,94,0.01,,OVC095,0.01,VWS V12.07,2013-06-17 00:50:00,
2013-06-16 19:51:00,57.5,55.8,29.77,NNW,333,0.0,6.0,94,0.01,,-RA,0.01,VWS V12.07,2013-06-17 00:51:00,
2013-06-16 19:53:00,57.3,56.5,29.77,ENE,62,0.0,6.0,97,0.01,,-RA,0.01,VWS V12.07,2013-06-17 00:53:00,
2013-06-16 19:54:00,57.3,56.5,29.77,NW,322,4.0,6.0,97,0.01,,-RA,0.01,VWS V12.07,2013-06-17 00:54:00,
2013-06-16 19:55:00,57.3,56.2,29.77,NNE,23,10.0,10.0,96,0.01,,-RA,0.01,VWS V12.07,2013-06-17 00:55:00,
2013-06-16 19:56:00,57.3,56.2,29.77,SSE,155,1.0,10.0,96,0.01,,-RA,0.01,VWS V12.07,2013-06-17 00:56:00,
2013-06-16 19:58:00,57.3,56.2,29.83,SSE,156,1.0,10.0,96,0.02,,-RA,0.02,VWS V12.07,2013-06-17 00:58:00,
2013-06-16 19:59:00,57.2,56.1,29.83,SSE,156,0.0,10.0,96,0.02,,-RA,0.02,VWS V12.07,2013-06-17 00:59:00,
2013-06-16 20:00:00,57.2,56.1,29.83,SSE,156,1.0,10.0,96,0.02,,-RA,0.02,VWS V12.07,2013-06-17 01:00:00,
2013-06-16 20:01:00,57.2,56.4,29.83,ESE,120,1.0,10.0,97,0.02,,-RA,0.02,VWS V12.07,2013-06-17 01:01:00,
2013-06-16 20:03:00,57.2,56.4,29.83,WSW,242,0.0,10.0,97,0.02,,-RA,0.02,VWS V12.07,2013-06-17 01:03:00,
2013-06-16 20:04:00,57.0,55.9,29.83,ESE,112,0.0,10.0,96,0.02,,-RA,0.02,VWS V12.07,2013-06-17 01:04:00,
2013-06-16 20:05:00,57.0,55.9,29.83,East,88,1.0,2.0,96,0.02,,-RA,0.02,VWS V12.07,2013-06-17 01:05:00,
2013-06-16 20:06:00,57.0,55.9,29.83,East,88,1.0,2.0,96,0.02,,-RA,0.02,VWS V12.07,2013-06-17 01:06:00,
2013-06-16 20:08:00,56.9,55.8,29.83,NNE,31,0.0,3.0,96,0.02,,-RA,0.02,VWS V12.07,2013-06-17 01:08:00,
2013-06-16 20:09:00,56.9,55.8,29.83,NNE,31,0.0,3.0,96,0.02,,-RA,0.02,VWS V12.07,2013-06-17 01:09:00,
2013-06-16 20:10:00,56.9,55.8,29.83,North,11,2.0,3.0,96,0.02,,-RA,0.02,VWS V12.07,2013-06-17 01:10:00,
2013-06-16 20:11:00,56.7,55.6,29.83,North,11,0.0,3.0,96,0.02,,-RA,0.02,VWS V12.07,2013-06-17 01:11:00,
2013-06-16 20:14:00,56.7,55.9,29.82,North,11,2.0,4.0,97,0.02,,-RA,0.02,VWS V12.07,2013-06-17 01:14:00,
2013-06-16 20:15:00,56.7,55.6,29.82,NE,51,1.0,3.0,96,0.02,,-RA,0.02,VWS V12.07,2013-06-17 01:15:00,
2013-06-16 20:16:00,56.7,55.6,29.82,NE,51,0.0,3.0,96,0.02,,-RA,0.03,VWS V12.07,2013-06-17 01:16:00,
2013-06-16 20:17:00,56.7,55.9,29.82,NE,51,0.0,3.0,97,0.02,,-RA,0.03,VWS V12.07,2013-06-17 01:17:00,
2013-06-16 20:19:00,56.7,56.1,29.82,NE,51,1.0,3.0,98,0.03,,-RA,0.03,VWS V12.07,2013-06-17 01:19:00,
2013-06-16 20:20:00,56.6,56.0,29.82,NE,51,2.0,3.0,98,0.03,,-RA,0.03,VWS V12.07,2013-06-17 01:20:00,
2013-06-16 20:21:00,56.6,56.0,29.82,NE,51,0.0,4.0,98,0.03,,-RA,0.03,VWS V12.07,2013-06-17 01:21:00,
2013-06-16 20:22:00,56.6,56.0,29.82,NE,51,0.0,4.0,98,0.03,,-RA,0.03,VWS V12.07,2013-06-17 01:22:00,
2013-06-16 20:24:00,56.5,55.9,29.82,NE,51,0.0,4.0,98,0.03,,-RA,0.03,VWS V12.07,2013-06-17 01:24:00,
2013-06-16 20:25:00,56.3,55.8,29.82,NE,51,0.0,1.0,98,0.02,,-RA,0.03,VWS V12.07,2013-06-17 01:25:00,
2013-06-16 20:26:00,56.3,55.8,29.82,NE,51,0.0,1.0,98,0.02,,-RA,0.03,VWS V12.07,2013-06-17 01:26:00,
2013-06-16 20:27:00,56.3,56.0,29.82,NE,51,0.0,1.0,99,0.02,,-RA,0.03,VWS V12.07,2013-06-17 01:27:00,
2013-06-16 20:29:00,56.2,55.9,29.77,NE,51,0.0,1.0,99,0.02,,-RA,0.03,VWS V12.07,2013-06-17 01:29:00,
2013-06-16 20:30:00,56.2,55.9,29.77,NE,51,0.0,1.0,99,0.02,,-RA,0.03,VWS V12.07,2013-06-17 01:30:00,
2013-06-16 20:31:00,56.2,55.9,29.77,NE,51,0.0,1.0,99,0.02,,-RA,0.03,VWS V12.07,2013-06-17 01:31:00,
2013-06-16 20:32:00,56.2,55.9,29.77,NE,51,0.0,1.0,99,0.02,,-RA,0.03,VWS V12.07,2013-06-17 01:32:00,
2013-06-16 20:34:00,56.2,55.9,29.77,NE,51,0.0,0.0,99,0.02,,-RA,0.03,VWS V12.07,2013-06-17 01:34:00,
2013-06-16 20:35:00,56.2,55.9,29.77,NE,51,0.0,0.0,99,0.02,,-RA,0.03,VWS V12.07,2013-06-17 01:35:00,
2013-06-16 20:36:00,56.2,55.9,29.77,NE,51,0.0,0.0,99,0.02,,-RA,0.03,VWS V12.07,2013-06-17 01:36:00,
2013-06-16 20:37:00,56.2,56.2,29.77,NE,51,0.0,0.0,100,0.02,,-RA,0.03,VWS V12.07,2013-06-17 01:37:00,
2013-06-16 20:40:00,56.0,56.0,29.77,NE,51,0.0,0.0,100,0.02,,-RA,0.03,VWS V12.07,2013-06-17 01:40:00,
2013-06-16 20:41:00,56.0,55.7,29.77,NE,51,0.0,0.0,99,0.02,,-RA,0.03,VWS V12.07,2013-06-17 01:41:00,
2013-06-16 20:42:00,56.0,56.0,29.77,NE,51,0.0,2.0,100,0.02,,-RA,0.03,VWS V12.07,2013-06-17 01:42:00,
2013-06-16 20:45:00,55.9,55.9,29.75,NE,51,0.0,0.0,100,0.02,,-RA,0.03,VWS V12.07,2013-06-17 01:45:00,
2013-06-16 20:46:00,55.9,55.9,29.75,NE,51,0.0,0.0,100,0.02,,-RA,0.03,VWS V12.07,2013-06-17 01:46:00,
2013-06-16 20:48:00,55.9,55.9,29.75,NE,51,0.0,2.0,100,0.02,,-RA,0.03,VWS V12.07,2013-06-17 01:48:00,
2013-06-16 20:50:00,55.9,55.9,29.75,NE,51,0.0,2.0,100,0.02,,-RA,0.03,VWS V12.07,2013-06-17 01:50:00,
2013-06-16 20:51:00,55.9,55.9,29.75,NE,51,0.0,2.0,100,0.02,,OVC110,0.03,VWS V12.07,2013-06-17 01:51:00,
2013-06-16 20:52:00,55.9,55.9,29.75,NE,51,0.0,2.0,100,0.02,,OVC110,0.03,VWS V12.07,2013-06-17 01:52:00,
2013-06-16 20:53:00,55.9,55.9,29.75,NE,51,0.0,2.0,100,0.02,,OVC110,0.03,VWS V12.07,2013-06-17 01:53:00,
2013-06-16 20:56:00,55.9,55.9,29.75,NE,51,0.0,0.0,100,0.02,,OVC110,0.03,VWS V12.07,2013-06-17 01:56:00,
2013-06-16 20:57:00,55.9,55.9,29.75,NE,51,0.0,0.0,100,0.02,,OVC110,0.03,VWS V12.07,2013-06-17 01:57:00,
2013-06-16 20:58:00,55.9,55.9,29.75,NE,51,0.0,0.0,100,0.02,,OVC110,0.03,VWS V12.07,2013-06-17 01:58:00,
2013-06-16 21:01:00,55.9,55.9,29.73,NE,51,0.0,2.0,100,0.02,,OVC110,0.03,VWS V12.07,2013-06-17 02:01:00,
2013-06-16 21:02:00,55.9,55.9,29.73,NE,51,0.0,2.0,100,0.02,,OVC110,0.03,VWS V12.07,2013-06-17 02:02:00,
2013-06-16 21:03:00,55.9,55.9,29.73,NE,51,0.0,2.0,100,0.02,,OVC110,0.03,VWS V12.07,2013-06-17 02:03:00,
2013-06-16 21:06:00,55.9,55.9,29.73,NE,51,2.0,2.0,100,0.01,,OVC110,0.03,VWS V12.07,2013-06-17 02:06:00,
2013-06-16 21:07:00,56.0,56.0,29.73,NE,51,0.0,2.0,100,0.01,,OVC110,0.03,VWS V12.07,2013-06-17 02:07:00,
2013-06-16 21:08:00,55.9,55.9,29.73,NE,51,0.0,2.0,100,0.02,,OVC110,0.03,VWS V12.07,2013-06-17 02:08:00,
2013-06-16 21:09:00,56.0,56.0,29.73,NE,51,1.0,2.0,100,0.01,,OVC110,0.03,VWS V12.07,2013-06-17 02:09:00,
2013-06-16 21:11:00,56.0,56.0,29.73,NE,51,2.0,3.0,100,0.01,,OVC110,0.03,VWS V12.07,2013-06-17 02:11:00,
2013-06-16 21:12:00,56.0,56.0,29.73,NE,51,0.0,3.0,100,0.01,,OVC110,0.03,VWS V12.07,2013-06-17 02:12:00,
2013-06-16 21:13:00,56.0,56.0,29.77,NE,51,0.0,3.0,100,0.02,,OVC110,0.04,VWS V12.07,2013-06-17 02:13:00,
2013-06-16 21:14:00,56.0,56.0,29.77,NE,51,0.0,3.0,100,0.02,,OVC110,0.04,VWS V12.07,2013-06-17 02:14:00,
2013-06-16 21:17:00,56.2,56.2,29.77,NE,51,0.0,2.0,100,0.02,,OVC110,0.04,VWS V12.07,2013-06-17 02:17:00,
2013-06-16 21:18:00,56.2,56.2,29.77,NE,51,1.0,2.0,100,0.02,,OVC110,0.04,VWS V12.07,2013-06-17 02:18:00,
2013-06-16 21:19:00,56.2,56.2,29.77,NE,51,2.0,2.0,100,0.02,,OVC110,0.05,VWS V12.07,2013-06-17 02:19:00,
2013-06-16 21:22:00,56.0,56.0,29.77,NE,51,2.0,3.0,100,0.03,,OVC110,0.05,VWS V12.07,2013-06-17 02:22:00,
2013-06-16 21:23:00,56.0,56.0,29.77,NE,51,0.0,3.0,100,0.03,,OVC110,0.05,VWS V12.07,2013-06-17 02:23:00,
2013-06-16 21:24:00,55.9,55.9,29.77,NE,51,0.0,3.0,100,0.03,,OVC110,0.05,VWS V12.07,2013-06-17 02:24:00,
2013-06-16 21:25:00,55.9,55.9,29.77,NE,51,0.0,0.0,100,0.02,,OVC110,0.05,VWS V12.07,2013-06-17 02:25:00,
2013-06-16 21:28:00,55.9,55.9,29.77,NE,51,0.0,0.0,100,0.02,,OVC110,0.05,VWS V12.07,2013-06-17 02:28:00,
2013-06-16 21:29:00,55.9,55.9,29.78,NE,51,0.0,0.0,100,0.02,,OVC110,0.05,VWS V12.07,2013-06-17 02:29:00,
2013-06-16 21:30:00,55.7,55.7,29.78,NE,51,0.0,0.0,100,0.02,,OVC110,0.05,VWS V12.07,2013-06-17 02:30:00,
2013-06-16 21:33:00,55.9,55.9,29.78,NE,51,0.0,2.0,100,0.02,,OVC110,0.05,VWS V12.07,2013-06-17 02:33:00,
2013-06-16 21:34:00,55.9,55.9,29.78,NE,51,0.0,2.0,100,0.02,,OVC110,0.05,VWS V12.07,2013-06-17 02:34:00,
2013-06-16 21:35:00,55.9,55.9,29.78,NE,51,0.0,2.0,100,0.02,,OVC110,0.05,VWS V12.07,2013-06-17 02:35:00,
2013-06-16 21:38:00,55.9,55.9,29.78,NE,51,0.0,2.0,100,0.02,,OVC110,0.05,VWS V12.07,2013-06-17 02:38:00,
2013-06-16 21:39:00,55.9,55.9,29.78,NE,51,0.0,0.0,100,0.02,,OVC110,0.05,VWS V12.07,2013-06-17 02:39:00,
2013-06-16 21:41:00,55.7,55.7,29.78,NE,51,0.0,0.0,100,0.02,,-RA,0.05,VWS V12.07,2013-06-17 02:41:00,
2013-06-16 21:44:00,55.6,55.6,29.77,NE,51,0.0,0.0,100,0.02,,-RA,0.05,VWS V12.07,2013-06-17 02:44:00,
2013-06-16 21:45:00,55.6,55.6,29.77,NE,51,0.0,0.0,100,0.02,,-RA,0.05,VWS V12.07,2013-06-17 02:45:00,
2013-06-16 21:46:00,55.6,55.6,29.77,NE,51,0.0,0.0,100,0.02,,-RA,0.05,VWS V12.07,2013-06-17 02:46:00,
2013-06-16 21:49:00,55.4,55.4,29.77,NE,51,0.0,0.0,100,0.02,,-RA,0.05,VWS V12.07,2013-06-17 02:49:00,
2013-06-16 21:50:00,55.4,55.4,29.77,NE,51,0.0,0.0,100,0.02,,-RA,0.05,VWS V12.07,2013-06-17 02:50:00,
2013-06-16 21:51:00,55.3,55.3,29.77,NE,51,0.0,0.0,100,0.02,,-RA,0.05,VWS V12.07,2013-06-17 02:51:00,
2013-06-16 21:54:00,55.3,55.3,29.77,NE,51,0.0,0.0,100,0.02,,-RA,0.05,VWS V12.07,2013-06-17 02:54:00,
2013-06-16 21:55:00,55.3,55.3,29.77,NE,51,0.0,0.0,100,0.02,,-RA,0.05,VWS V12.07,2013-06-17 02:55:00,
2013-06-16 21:56:00,55.3,55.3,29.77,NE,51,0.0,0.0,100,0.02,,-RA,0.05,VWS V12.07,2013-06-17 02:56:00,
2013-06-16 21:57:00,55.3,55.3,29.77,NE,51,0.0,0.0,100,0.02,,-RA,0.05,VWS V12.07,2013-06-17 02:57:00,
2013-06-16 21:59:00,55.3,55.3,29.78,NE,51,0.0,0.0,100,0.02,,-RA,0.05,VWS V12.07,2013-06-17 02:59:00,
2013-06-16 22:00:00,55.3,55.3,29.78,NE,51,0.0,0.0,100,0.02,,-RA,0.05,VWS V12.07,2013-06-17 03:00:00,
2013-06-16 22:01:00,55.3,55.3,29.78,NE,51,0.0,0.0,100,0.02,,-RA,0.05,VWS V12.07,2013-06-17 03:01:00,
2013-06-16 22:03:00,55.3,55.3,29.78,NE,51,0.0,0.0,100,0.02,,-RA,0.05,VWS V12.07,2013-06-17 03:03:00,
2013-06-16 22:04:00,55.1,55.1,29.78,NE,51,0.0,0.0,100,0.02,,-RA,0.05,VWS V12.07,2013-06-17 03:04:00,
2013-06-16 22:05:00,55.1,55.1,29.78,NE,51,0.0,0.0,100,0.02,,-RA,0.05,VWS V12.07,2013-06-17 03:05:00,
2013-06-16 22:06:00,55.1,55.1,29.78,NE,51,0.0,0.0,100,0.02,,-RA,0.05,VWS V12.07,2013-06-17 03:06:00,
2013-06-16 22:08:00,55.1,55.1,29.78,NE,51,0.0,0.0,100,0.02,,-RA,0.05,VWS V12.07,2013-06-17 03:08:00,
2013-06-16 22:09:00,55.0,55.0,29.78,NE,51,0.0,0.0,100,0.02,,-RA,0.05,VWS V12.07,2013-06-17 03:09:00,
2013-06-16 22:11:00,55.0,55.0,29.78,NE,51,0.0,0.0,100,0.02,,-RA,0.05,VWS V12.07,2013-06-17 03:11:00,
2013-06-16 22:13:00,55.0,55.0,29.76,NE,51,0.0,0.0,100,0.02,,-RA,0.05,VWS V12.07,2013-06-17 03:13:00,
2013-06-16 22:15:00,55.0,55.0,29.76,NE,51,0.0,0.0,100,0.01,,-RA,0.05,VWS V12.07,2013-06-17 03:15:00,
2013-06-16 22:16:00,55.0,55.0,29.76,NE,51,0.0,0.0,100,0.01,,-RA,0.05,VWS V12.07,2013-06-17 03:16:00,
2013-06-16 22:18:00,54.8,54.8,29.76,NE,51,0.0,0.0,100,0.01,,-RA,0.05,VWS V12.07,2013-06-17 03:18:00,
2013-06-16 22:20:00,54.8,54.8,29.76,NE,51,0.0,0.0,100,0.01,,-RA,0.05,VWS V12.07,2013-06-17 03:20:00,
2013-06-16 22:21:00,54.8,54.8,29.76,NE,51,0.0,0.0,100,0.01,,-RA,0.05,VWS V12.07,2013-06-17 03:21:00,
2013-06-16 22:22:00,54.8,54.8,29.76,NE,51,0.0,0.0,100,0.01,,-RA,0.05,VWS V12.07,2013-06-17 03:22:00,
2013-06-16 22:24:00,54.7,54.7,29.76,NE,51,0.0,0.0,100,0.01,,-RA,0.05,VWS V12.07,2013-06-17 03:24:00,
2013-06-16 22:25:00,54.7,54.7,29.76,NE,51,0.0,0.0,100,0.00,,-RA,0.05,VWS V12.07,2013-06-17 03:25:00,
2013-06-16 22:26:00,54.7,54.7,29.76,NE,51,0.0,0.0,100,0.00,,-RA,0.05,VWS V12.07,2013-06-17 03:26:00,
2013-06-16 22:27:00,54.7,54.7,29.76,NE,51,0.0,0.0,100,0.00,,-RA,0.05,VWS V12.07,2013-06-17 03:27:00,
2013-06-16 22:29:00,54.5,54.5,29.76,NE,51,0.0,0.0,100,0.00,,-RA,0.05,VWS V12.07,2013-06-17 03:29:00,
2013-06-16 22:30:00,54.5,54.5,29.76,NE,51,0.0,0.0,100,0.00,,-RA,0.05,VWS V12.07,2013-06-17 03:30:00,
2013-06-16 22:31:00,54.4,54.4,29.76,NE,51,0.0,0.0,100,0.00,,-RA,0.05,VWS V12.07,2013-06-17 03:31:00,
2013-06-16 22:32:00,54.4,54.4,29.76,NE,51,0.0,0.0,100,0.00,,-RA,0.05,VWS V12.07,2013-06-17 03:32:00,
2013-06-16 22:34:00,54.2,54.2,29.76,NE,51,0.0,0.0,100,0.00,,-RA,0.05,VWS V12.07,2013-06-17 03:34:00,
2013-06-16 22:35:00,54.2,54.2,29.76,NE,51,0.0,0.0,100,0.00,,-RA,0.05,VWS V12.07,2013-06-17 03:35:00,
2013-06-16 22:36:00,54.2,54.2,29.76,NE,51,0.0,0.0,100,0.00,,-RA,0.05,VWS V12.07,2013-06-17 03:36:00,
2013-06-16 22:37:00,54.2,54.2,29.76,NE,51,0.0,0.0,100,0.00,,-RA,0.05,VWS V12.07,2013-06-17 03:37:00,
2013-06-16 22:40:00,54.2,54.2,29.76,NE,51,0.0,0.0,100,0.00,,SCT110,0.05,VWS V12.07,2013-06-17 03:40:00,
2013-06-16 22:41:00,54.2,54.2,29.76,NE,51,0.0,0.0,100,0.00,,SCT110,0.05,VWS V12.07,2013-06-17 03:41:00,
2013-06-16 22:42:00,54.2,54.2,29.76,NE,51,0.0,0.0,100,0.00,,SCT110,0.05,VWS V12.07,2013-06-17 03:42:00,
2013-06-16 22:43:00,54.2,54.2,29.76,NE,51,0.0,0.0,100,0.00,,SCT110,0.05,VWS V12.07,2013-06-17 03:43:00,
2013-06-16 22:45:00,54.2,54.2,29.76,NE,51,0.0,0.0,100,0.00,,SCT110,0.05,VWS V12.07,2013-06-17 03:45:00,
2013-06-16 22:46:00,54.2,54.2,29.76,NE,51,0.0,0.0,100,0.00,,SCT110,0.05,VWS V12.07,2013-06-17 03:46:00,
2013-06-16 22:47:00,54.2,54.2,29.76,NE,51,0.0,0.0,100,0.00,,SCT110,0.05,VWS V12.07,2013-06-17 03:47:00,
2013-06-16 22:48:00,54.1,54.1,29.76,NE,51,0.0,0.0,100,0.00,,SCT110,0.05,VWS V12.07,2013-06-17 03:48:00,
2013-06-16 22:51:00,54.1,54.1,29.76,NE,51,0.0,0.0,100,0.00,,SCT110,0.05,VWS V12.07,2013-06-17 03:51:00,
2013-06-16 22:52:00,54.1,54.1,29.76,NE,51,0.0,0.0,100,0.00,,SCT110,0.05,VWS V12.07,2013-06-17 03:52:00,
2013-06-16 22:53:00,54.1,54.1,29.76,NE,51,0.0,0.0,100,0.00,,SCT110,0.05,VWS V12.07,2013-06-17 03:53:00,
2013-06-16 22:54:00,54.1,54.1,29.76,NE,51,0.0,0.0,100,0.00,,SCT110,0.05,VWS V12.07,2013-06-17 03:54:00,
2013-06-16 22:56:00,54.1,54.1,29.76,NE,51,0.0,0.0,100,0.00,,SCT110,0.05,VWS V12.07,2013-06-17 03:56:00,
2013-06-16 22:57:00,54.1,54.1,29.76,NE,51,0.0,0.0,100,0.00,,SCT110,0.05,VWS V12.07,2013-06-17 03:57:00,
2013-06-16 22:58:00,54.1,54.1,29.75,NE,51,0.0,0.0,100,0.00,,SCT110,0.05,VWS V12.07,2013-06-17 03:58:00,
2013-06-16 22:59:00,54.1,54.1,29.75,NE,51,0.0,0.0,100,0.00,,SCT110,0.05,VWS V12.07,2013-06-17 03:59:00,
2013-06-16 23:00:00,54.1,54.1,29.75,NE,51,0.0,0.0,100,0.00,,SCT110,0.05,VWS V12.07,2013-06-17 04:00:00,
2013-06-16 23:01:00,54.1,54.1,29.75,NE,51,0.0,0.0,100,0.00,,SCT110,0.05,VWS V12.07,2013-06-17 04:01:00,
2013-06-16 23:06:00,54.2,54.2,29.75,NE,51,0.0,0.0,100,0.00,,SCT110,0.05,VWS V12.07,2013-06-17 04:06:00,
2013-06-16 23:07:00,54.2,54.2,29.75,NE,51,0.0,0.0,100,0.00,,SCT110,0.05,VWS V12.07,2013-06-17 04:07:00,
2013-06-16 23:11:00,54.2,54.2,29.75,NE,51,0.0,0.0,100,0.00,,SCT110,0.05,VWS V12.07,2013-06-17 04:11:00,
2013-06-16 23:12:00,54.2,54.2,29.75,NE,51,0.0,0.0,100,0.00,,SCT110,0.05,VWS V12.07,2013-06-17 04:12:00,
2013-06-16 23:16:00,54.2,54.2,29.77,NE,51,0.0,0.0,100,0.00,,SCT110,0.05,VWS V12.07,2013-06-17 04:16:00,
2013-06-16 23:17:00,54.2,54.2,29.77,NE,51,0.0,0.0,100,0.00,,SCT110,0.05,VWS V12.07,2013-06-17 04:17:00,
2013-06-16 23:21:00,54.2,54.2,29.77,NE,51,0.0,0.0,100,0.00,,SCT110,0.05,VWS V12.07,2013-06-17 04:21:00,
2013-06-16 23:22:00,54.2,54.2,29.77,NE,51,0.0,0.0,100,0.00,,SCT110,0.05,VWS V12.07,2013-06-17 04:22:00,
2013-06-16 23:23:00,54.4,54.4,29.77,NE,51,0.0,0.0,100,0.00,,SCT110,0.05,VWS V12.07,2013-06-17 04:23:00,
2013-06-16 23:26:00,54.4,54.4,29.77,NE,51,0.0,0.0,100,0.00,,SCT110,0.05,VWS V12.07,2013-06-17 04:26:00,
2013-06-16 23:27:00,54.4,54.4,29.77,NE,51,0.0,0.0,100,0.00,,SCT110,0.05,VWS V12.07,2013-06-17 04:27:00,
2013-06-16 23:28:00,54.5,54.5,29.78,NE,51,0.0,0.0,100,0.00,,SCT110,0.05,VWS V12.07,2013-06-17 04:28:00,
2013-06-16 23:29:00,54.5,54.5,29.78,NE,51,0.0,0.0,100,0.00,,SCT110,0.05,VWS V12.07,2013-06-17 04:29:00,
2013-06-16 23:31:00,54.5,54.5,29.78,NE,51,0.0,0.0,100,0.00,,SCT110,0.05,VWS V12.07,2013-06-17 04:31:00,
2013-06-16 23:32:00,54.5,54.5,29.78,NE,51,0.0,0.0,100,0.00,,SCT110,0.05,VWS V12.07,2013-06-17 04:32:00,
2013-06-16 23:34:00,54.5,54.5,29.78,NE,51,0.0,0.0,100,0.00,,SCT110,0.05,VWS V12.07,2013-06-17 04:34:00,
2013-06-16 23:36:00,54.5,54.5,29.78,NE,51,0.0,0.0,100,0.00,,SCT110,0.05,VWS V12.07,2013-06-17 04:36:00,
2013-06-16 23:37:00,54.5,54.5,29.78,NE,51,0.0,0.0,100,0.00,,SCT110,0.05,VWS V12.07,2013-06-17 04:37:00,
2013-06-16 23:39:00,54.7,54.7,29.78,NE,51,0.0,0.0,100,0.00,,-RA,0.05,VWS V12.07,2013-06-17 04:39:00,
2013-06-16 23:41:00,54.7,54.7,29.78,NE,51,0.0,0.0,100,0.00,,-RA,0.05,VWS V12.07,2013-06-17 04:41:00,
2013-06-16 23:42:00,54.7,54.7,29.78,NE,51,0.0,0.0,100,0.00,,-RA,0.05,VWS V12.07,2013-06-17 04:42:00,
2013-06-16 23:44:00,54.7,54.7,29.79,NE,51,0.0,0.0,100,0.00,,-RA,0.00,VWS V12.07,2013-06-17 04:44:00,
2013-06-16 23:46:00,54.7,54.7,29.79,NE,51,0.0,0.0,100,0.00,,-RA,0.00,VWS V12.07,2013-06-17 04:46:00,
2013-06-16 23:48:00,54.7,54.7,29.79,NE,51,0.0,0.0,100,0.00,,-RA,0.00,VWS V12.07,2013-06-17 04:48:00,
2013-06-16 23:49:00,54.7,54.7,29.79,NE,51,0.0,0.0,100,0.00,,-RA,0.00,VWS V12.07,2013-06-17 04:49:00,
2013-06-16 23:52:00,54.7,54.7,29.79,NE,51,0.0,0.0,100,0.00,,RA,0.00,VWS V12.07,2013-06-17 04:52:00,
2013-06-16 23:54:00,54.7,54.7,29.79,NE,51,0.0,0.0,100,0.00,,RA,0.00,VWS V12.07,2013-06-17 04:54:00,
2013-06-16 23:57:00,54.7,54.7,29.79,NE,51,0.0,0.0,100,0.00,,RA,0.00,VWS V12.07,2013-06-17 04:57:00,
2013-06-16 23:59:00,54.7,54.7,29.76,NE,51,0.0,0.0,100,0.00,,RA,0.00,VWS V12.07,2013-06-17 04:59:00,